This demonstration page uses our WeatherBlox Daily Observations layout. Learn more.

Left ArrowRight Arrow

34.74481, -87.66753

Hourly Observations for December 23, 2020

Temp ( °F °C ) Dew Point ( °F °C ) Humidity (%) Winds ( mph kmh ) Pressure ( in mb ) Visibility ( mi km ) Precip ( " mm )
12:53 am 00:53 Clear 41 5 28 -2.2 60 60 E 5 7 30.16 1021 10 16 0.00 0.00
1:53 am 01:53 Clear 42 5.6 28 -2.2 58 58 E 7 11 30.14 1021 10 16 0.00 0.00
2:53 am 02:53 Clear 42 5.6 28 -2.2 58 58 ESE 7 11 30.14 1021 10 16 0.00 0.00
3:53 am 03:53 Clear 39 3.9 28 -2.2 65 65 ESE 6 9 30.12 1020 10 16 0.00 0.00
4:53 am 04:53 Clear 42 5.6 29 -1.7 60 60 SSE 9 15 30.12 1020 10 16 0.00 0.00
5:53 am 05:53 Clear 44 6.7 29 -1.7 55 55 SSE 9 15 30.13 1020 10 16 0.00 0.00
6:53 am 06:53 Clear 44 6.7 28 -2.2 53 53 SE 8 13 30.14 1021 10 16 0.00 0.00
7:53 am 07:53 Sunny 47 8.3 30 -1.1 52 52 SSE 8 13 30.15 1021 10 16 0.00 0.00
8:53 am 08:53 Sunny 50 10 31 -0.6 48 48 SSE 9 15 30.15 1021 10 16 0.00 0.00
9:53 am 09:53 Mostly Cloudy 54 12.2 35 1.7 49 49 SSE 10 17 30.14 1021 10 16 0.00 0.00
10:53 am 10:53 Mostly Sunny 58 14.4 38 3.3 48 48 SSE 14 22 30.10 1019 10 16 0.00 0.00
11:53 am 11:53 Cloudy 58 14.4 38 3.3 48 48 SSE 10 17 30.05 1018 10 16 0.00 0.00
12:53 pm 12:53 Cloudy 61 16.1 41 5 48 48 SSE 13 20 29.99 1016 10 16 0.00 0.00
1:53 pm 13:53 Cloudy 62 16.7 43 6.1 50 50 S 12 19 29.97 1015 10 16 0.00 0.00
2:53 pm 14:53 Cloudy 61 16.1 42 5.6 50 50 SSE 12 19 29.95 1014 10 16 0.00 0.00
3:53 pm 15:53 Cloudy 61 16.1 42 5.6 50 50 SSE 13 20 29.94 1014 10 16 0.00 0.00
4:53 pm 16:53 Cloudy 60 15.6 40 4.4 47 47 SSE 14 22 29.92 1013 10 16 0.00 0.00
5:53 pm 17:53 Cloudy 60 15.6 40 4.4 47 47 SSE 18 30 29.90 1012 10 16 0.00 0.00
6:53 pm 18:53 Cloudy 57 13.9 43 6.1 60 60 SSE 17 28 29.88 1012 10 16 0.01 0.25
7:53 pm 19:53 Cloudy with Light Rain 54 12.2 46 7.8 75 75 SSE 20 31 29.87 1012 7 11 0.07 1.78
8:53 pm 20:53 Cloudy with Light Rain 54 12.2 46 7.8 75 75 SSE 20 31 29.85 1011 10 16 0.01 0.25
9:32 pm 21:32 Cloudy with Light Rain 54 12.2 46 7.8 75 75 S 15 24 29.85 1011 10 16 0.04 1.02
9:53 pm 21:53 Cloudy with Rain 54 12.2 46 7.8 75 75 SSE 17 28 29.83 1010 3 5 0.12 3.05
10:30 pm 22:30 Cloudy with Rain 54 12.2 47 8.3 77 77 SSE 17 28 29.81 1010 7 11 0.03 0.76
10:43 pm 22:43 Cloudy with Light Rain 54 12.2 47 8.3 77 77 WNW 12 19 29.82 1010 10 16 0.04 1.02
10:53 pm 22:53 Cloudy with Light Rain 54 12.2 48 8.9 80 80 SSE 14 22 29.79 1009 6 10 0.06 1.52
11:12 pm 23:12 Cloudy with Light Rain 54 12.2 48 8.9 80 80 SSE 15 24 29.81 1010 6 10 0.01 0.25
11:51 pm 23:51 Cloudy with Light Rain 54 12 48 9 82 82 SSE 13 20 29.76 1008 10 16 0.08 2.03
11:53 pm 23:53 Cloudy with Light Rain 54 12.2 48 8.9 80 80 SSE 13 20 29.75 1008 10 16 0.08 2.03

Powered by AerisWeather